User: anonymous   Login
Location: Caltech
(34.1382°N, 118.1253°W)
Time: 03:40:19
(UTC-08:00)
Language:

Cosmos 1833 Rocket - Orbit

View from above orbital plane
View from above orbital plane
View from above satellite
View from above satellite

Ground track
Ground track

The orbit data is extracted from the following two-line orbital elements,

1 17590U 87027B   16039.18234292 -.00000046  00000-0  11544-5 0  9997
2 17590  71.0032 112.3095 0006307 317.8813  42.1825 14.16715654494015
Epoch (UTC): 08 February 2016 04:22:34
Eccentricity: 0.0006307
inclination: 71.0032°
perigee height: 832 km
apogee height: 841 km
right ascension of ascending node: 112.3095°
argument of perigee: 317.8813°
revolutions per day: 14.16715654
mean anomaly at epoch: 42.1825°
orbit number at epoch: 49401

The dashed part of the orbit path shows where the satellite is in the earth's shadow,  

DLR